Regional Weather Roundup
Issued by NWS

Home | Current Version | Previous Version | Text Only | Print | Product List | Glossary Off
Versions: 1 2 3 4 5 6 7 8 9 10 11 12 13 14 15 16 17 18 19 20 21 22 23 24 25 26 27 28 29 30 31 32 33 34 35 36 37 38 39 40 41 42 43 44 45 46 47 48 49 50

503
ASUS43 KLSX 280810
RWRMO

WEATHER SUMMARY FOR MISSOURI
NATIONAL WEATHER SERVICE SPRINGFIELD MO
300 AM CDT THU JUL 28 2016

NOTE: "FAIR" INDICATES FEW OR NO CLOUDS BELOW 12,000 FEET WITH NO
       SIGNIFICANT WEATHER AND/OR OBSTRUCTIONS TO VISIBILITY.
       CURRENT SKY AND/OR WEATHER CONDITIONS ARE NOT AVAILABLE FOR
       CHILLICOTHE AND FARMINGTON.

MOZ001>031-035>038-043-044-053-054-280900-
...NORTHERN AND WESTERN MISSOURI...

CITY           SKY/WX    TMP DP  RH WIND       PRES   REMARKS
KANSAS CTY INT PTCLDY    74  71  91 W6        29.93F
KANSAS C DTWN  PTCLDY    78  73  84 CALM      29.92S
LEE`S SUMMIT   CLEAR     78  71  79 CALM      29.94F
ST JOSEPH      PTCLDY    72  70  93 N3        29.93F
CHILLICOTHE      N/A     73  71  93 CALM      29.93F
KIRKSVILLE     CLEAR     69  67  93 N3        29.93S

$$
MOZ066>068-077>081-088>096-101>105-280900-
...SOUTHWEST MISSOURI...

CITY           SKY/WX    TMP DP  RH WIND       PRES   REMARKS
SPRINGFIELD    CLEAR     73  69  87 CALM      29.95F
JOPLIN         CLEAR     72  70  93 S3        29.95F
BRANSON        PTCLDY    72  72 100 CALM      29.97F FOG

$$
MOZ032>034-039>042-045>050-055>058-069>072-280900-
...CENTRAL MISSOURI...

CITY           SKY/WX    TMP DP  RH WIND       PRES   REMARKS
COLUMBIA       CLEAR     74  73  97 S5        29.91F FOG
JEFFERSON CITY CLEAR     76  71  85 CALM      29.89F
ROLLA          PTCLDY    69  67  93 S5        29.91F
SEDALIA        CLEAR     76  72  87 CALM      29.93F
WHITEMAN AFB   PTCLDY    73  73 100 SW3       29.91F
OSAGE BEACH    CLEAR     73  71  93 SW3       29.92F

$$
MOZ051-052-059>065-280900-
...EAST CENTRAL MISSOURI...

CITY           SKY/WX    TMP DP  RH WIND       PRES   REMARKS
ST LOUIS INTL  PTCLDY    79  71  76 W3        29.89F
SPIRIT OF STL  CLEAR     74  74 100 W3        29.88F
ST CHARLES     PTCLDY    75  73  93 E3        29.88F

$$
MOZ072>076-082>087-097>100-106>115-280900-
...SOUTH CENTRAL AND SOUTHEAST MISSOURI...

CITY           SKY/WX    TMP DP  RH WIND       PRES   REMARKS
CAPE GIRARDEAU CLOUDY    74  72  93 S3        29.89F
FARMINGTON     MOCLDY    73  72  96 W3        29.91F
POPLAR BLUFF   CLOUDY    74  73  97 NW3       29.90S
WEST PLAINS    PTCLDY    71  67  87 CALM      29.96F

$$




USA.gov is the U.S. government's official web portal to all federal, state and local government web resources and services.